BSAT-3B

Last updated on Sat Apr 26 2025 00:02:41 GMT+0000 (Coordinated Universal Time)

1 37207U 10056B 25115.55238334 -.00000348 00000+0 00000+0 0 9992 2 37207 0.0292 229.0905 0000265 6.1108 287.3108 1.00272821 47913
UTC large
Height (km)
Speed (km/s)
/
Latitude / Longitude
Inclination (degrees)
Orbital Period (minutes)
Azimuth
Elevation
Range (km)
Doppler Factor

Next 0 passes for location: London (51.5072 / 0.1276)

Sorry there are no passes over London.